Time,TemperatureF,DewpointF,PressureIn,WindDirection,WindDirectionDegrees,WindSpeedMPH,WindSpeedGustMPH,Humidity,HourlyPrecipIn,Conditions,Clouds,dailyrainin,SoftwareType,DateUTC
2013-03-17 00:01:00,21.3,16.3,29.79,NNW,335,0.0,10.0,81,0.00,,,0.00,VWS V14.00,2013-03-17 04:01:00,
2013-03-17 00:07:00,20.9,15.9,29.79,NNW,335,0.0,10.0,81,0.00,,,0.00,VWS V14.00,2013-03-17 04:07:00,
2013-03-17 00:10:00,20.9,16.0,29.80,NNW,335,0.0,10.0,81,0.00,,,0.00,VWS V14.00,2013-03-17 04:10:00,
2013-03-17 00:17:00,20.7,15.9,29.79,NNW,335,0.0,10.0,81,0.00,,,0.00,VWS V14.00,2013-03-17 04:17:00,
2013-03-17 00:23:00,20.6,16.0,29.79,NNW,335,0.0,10.0,82,0.00,,,0.00,VWS V14.00,2013-03-17 04:23:00,
2013-03-17 00:29:00,20.7,16.2,29.79,NNW,335,0.0,10.0,82,0.00,,,0.00,VWS V14.00,2013-03-17 04:29:00,
2013-03-17 00:35:00,20.4,16.0,29.79,NNW,335,0.0,10.0,83,0.00,,,0.00,VWS V14.00,2013-03-17 04:35:00,
2013-03-17 00:41:00,20.4,16.0,29.79,NNW,335,0.0,10.0,83,0.00,,,0.00,VWS V14.00,2013-03-17 04:41:00,
2013-03-17 00:47:00,20.3,15.9,29.79,NNW,335,0.0,10.0,83,0.00,,,0.00,VWS V14.00,2013-03-17 04:47:00,
2013-03-17 00:50:00,24.3,23.9,29.65,NNW,329,0.0,14.7,98,0.00,,,0.00,VWS V14.00,2013-03-17 04:50:00,
2013-03-17 00:53:00,20.1,15.8,29.79,NNW,335,0.0,0.0,83,0.00,,,0.00,VWS V14.00,2013-03-17 04:53:00,
2013-03-17 00:59:00,20.1,16.0,29.79,NNW,335,0.0,0.0,84,0.00,,,0.00,VWS V14.00,2013-03-17 04:59:00,
2013-03-17 01:05:00,19.7,15.6,29.79,NNW,335,0.0,0.0,84,0.00,,,0.00,VWS V14.00,2013-03-17 05:05:00,
2013-03-17 01:11:00,19.5,15.5,29.79,NNW,335,0.0,0.0,84,0.00,,,0.00,VWS V14.00,2013-03-17 05:11:00,
2013-03-17 01:17:00,19.2,15.3,29.79,NNW,335,0.0,0.0,84,0.00,,,0.00,VWS V14.00,2013-03-17 05:17:00,
2013-03-17 01:23:00,19.1,15.4,29.79,NNW,335,0.0,0.0,85,0.00,,,0.00,VWS V14.00,2013-03-17 05:23:00,
2013-03-17 01:29:00,18.9,15.4,29.79,NNW,335,0.0,0.0,86,0.00,,,0.00,VWS V14.00,2013-03-17 05:29:00,
2013-03-17 01:35:00,18.7,15.3,29.79,NNW,335,0.0,0.0,86,0.00,,,0.00,VWS V14.00,2013-03-17 05:35:00,
2013-03-17 01:41:00,18.4,15.2,29.79,NNW,335,0.0,0.0,87,0.00,,,0.00,VWS V14.00,2013-03-17 05:41:00,
2013-03-17 01:47:00,18.1,15.0,29.79,NNW,335,0.0,0.0,88,0.00,,,0.00,VWS V14.00,2013-03-17 05:47:00,
2013-03-17 01:53:00,17.9,15.0,29.79,NNW,335,0.0,0.0,88,0.00,,,0.00,VWS V14.00,2013-03-17 05:53:00,
2013-03-17 01:59:00,17.8,15.0,29.80,NNW,335,0.0,0.0,89,0.00,,,0.00,VWS V14.00,2013-03-17 05:59:00,
2013-03-17 02:05:00,17.6,15.0,29.80,NNW,335,0.0,0.0,89,0.00,,,0.00,VWS V14.00,2013-03-17 06:05:00,
2013-03-17 02:11:00,17.4,14.9,29.80,NNW,335,0.0,0.0,90,0.00,,,0.00,VWS V14.00,2013-03-17 06:11:00,
2013-03-17 02:18:00,17.2,14.8,29.80,NNW,335,0.0,0.0,90,0.00,,,0.00,VWS V14.00,2013-03-17 06:18:00,
2013-03-17 02:24:00,17.2,14.8,29.80,NNW,335,0.0,0.0,90,0.00,,,0.00,VWS V14.00,2013-03-17 06:24:00,
2013-03-17 02:30:00,16.9,14.5,29.80,NNW,335,0.0,0.0,90,0.00,,,0.00,VWS V14.00,2013-03-17 06:30:00,
2013-03-17 02:36:00,16.6,14.2,29.81,NNW,335,0.0,0.0,90,0.00,,,0.00,VWS V14.00,2013-03-17 06:36:00,
2013-03-17 02:42:00,16.5,14.2,29.81,NNW,335,0.0,0.0,90,0.00,,,0.00,VWS V14.00,2013-03-17 06:42:00,
2013-03-17 02:48:00,16.4,14.1,29.82,NNW,335,0.0,0.0,91,0.00,,,0.00,VWS V14.00,2013-03-17 06:48:00,
2013-03-17 02:54:00,16.2,14.0,29.82,NNW,335,0.0,0.0,91,0.00,,,0.00,VWS V14.00,2013-03-17 06:54:00,
2013-03-17 03:00:00,15.9,13.8,29.82,NNW,335,0.0,0.0,91,0.00,,,0.00,VWS V14.00,2013-03-17 07:00:00,
2013-03-17 03:06:00,15.9,13.9,29.82,NNW,335,0.0,0.0,92,0.00,,,0.00,VWS V14.00,2013-03-17 07:06:00,
2013-03-17 03:12:00,15.8,13.8,29.83,NNW,335,0.0,0.0,92,0.00,,,0.00,VWS V14.00,2013-03-17 07:12:00,
2013-03-17 03:18:00,15.7,13.7,29.83,NNW,335,0.0,0.0,92,0.00,,,0.00,VWS V14.00,2013-03-17 07:18:00,
2013-03-17 03:24:00,15.4,13.4,29.83,NNW,335,0.0,0.0,92,0.00,,,0.00,VWS V14.00,2013-03-17 07:24:00,
2013-03-17 03:30:00,15.1,13.2,29.84,NNW,335,0.0,0.0,92,0.00,,,0.00,VWS V14.00,2013-03-17 07:30:00,
2013-03-17 03:36:00,15.1,13.2,29.84,NNW,335,0.0,0.0,92,0.00,,,0.00,VWS V14.00,2013-03-17 07:36:00,
2013-03-17 03:42:00,14.9,13.1,29.84,NNW,335,0.0,0.0,92,0.00,,,0.00,VWS V14.00,2013-03-17 07:42:00,
2013-03-17 03:48:00,14.7,12.9,29.84,NNW,335,0.0,0.0,92,0.00,,,0.00,VWS V14.00,2013-03-17 07:48:00,
2013-03-17 03:54:00,14.6,12.8,29.83,NNW,335,0.0,0.0,92,0.00,,,0.00,VWS V14.00,2013-03-17 07:54:00,
2013-03-17 04:00:00,14.6,12.9,29.84,NNW,335,0.0,0.0,93,0.00,,,0.00,VWS V14.00,2013-03-17 08:00:00,
2013-03-17 04:07:00,14.5,12.9,29.84,NNW,335,0.0,0.0,93,0.00,,,0.00,VWS V14.00,2013-03-17 08:07:00,
2013-03-17 04:13:00,14.5,12.9,29.84,NNW,335,0.0,0.0,93,0.00,,,0.00,VWS V14.00,2013-03-17 08:13:00,
2013-03-17 04:19:00,14.6,13.1,29.84,NNW,335,0.0,0.0,94,0.00,,,0.00,VWS V14.00,2013-03-17 08:19:00,
2013-03-17 04:25:00,14.7,13.3,29.84,NNW,335,0.0,0.0,94,0.00,,,0.00,VWS V14.00,2013-03-17 08:25:00,
2013-03-17 04:34:00,14.8,13.4,29.84,NNW,335,0.0,0.0,94,0.00,,,0.00,VWS V14.00,2013-03-17 08:34:00,
2013-03-17 04:40:00,14.7,13.3,29.84,NNW,335,0.0,0.0,94,0.00,,,0.00,VWS V14.00,2013-03-17 08:40:00,
2013-03-17 04:46:00,14.7,13.3,29.84,NNW,335,0.0,0.0,94,0.00,,,0.00,VWS V14.00,2013-03-17 08:46:00,
2013-03-17 04:52:00,14.7,13.2,29.84,NNW,335,0.0,0.0,94,0.00,,,0.00,VWS V14.00,2013-03-17 08:52:00,
2013-03-17 04:58:00,14.6,13.1,29.84,NNW,335,0.0,0.0,94,0.00,,,0.00,VWS V14.00,2013-03-17 08:58:00,
2013-03-17 05:04:00,14.6,13.3,29.84,NNW,335,0.0,0.0,94,0.00,,,0.00,VWS V14.00,2013-03-17 09:04:00,
2013-03-17 05:10:00,14.7,13.4,29.85,NNW,335,0.0,0.0,95,0.00,,,0.00,VWS V14.00,2013-03-17 09:10:00,
2013-03-17 05:16:00,14.8,13.6,29.85,NNW,335,0.0,0.0,95,0.00,,,0.00,VWS V14.00,2013-03-17 09:16:00,
2013-03-17 05:22:00,15.1,13.9,29.84,NNW,335,0.0,0.0,95,0.00,,,0.00,VWS V14.00,2013-03-17 09:22:00,
2013-03-17 05:28:00,15.2,14.1,29.84,NNW,335,0.0,0.0,95,0.00,,,0.00,VWS V14.00,2013-03-17 09:28:00,
2013-03-17 05:34:00,15.4,14.2,29.84,NNW,335,0.0,0.0,95,0.00,,,0.00,VWS V14.00,2013-03-17 09:34:00,
2013-03-17 05:40:00,15.4,14.2,29.84,NNW,335,0.0,0.0,95,0.00,,,0.00,VWS V14.00,2013-03-17 09:40:00,
2013-03-17 05:46:00,15.2,13.9,29.85,NNW,335,0.0,0.0,95,0.00,,,0.00,VWS V14.00,2013-03-17 09:46:00,
2013-03-17 05:53:00,15.0,13.7,29.84,NNW,335,0.0,0.0,94,0.00,,,0.00,VWS V14.00,2013-03-17 09:53:00,
2013-03-17 05:59:00,14.8,13.5,29.84,NNW,335,0.0,0.0,94,0.00,,,0.00,VWS V14.00,2013-03-17 09:59:00,
2013-03-17 06:05:00,14.7,13.4,29.85,NNW,335,0.0,0.0,94,0.00,,,0.00,VWS V14.00,2013-03-17 10:05:00,
2013-03-17 06:11:00,14.5,13.2,29.85,NNW,335,0.0,0.0,95,0.00,,,0.00,VWS V14.00,2013-03-17 10:11:00,
2013-03-17 06:17:00,14.4,13.2,29.85,NNW,335,0.0,0.0,95,0.00,,,0.00,VWS V14.00,2013-03-17 10:17:00,
2013-03-17 06:23:00,14.2,13.0,29.85,NNW,335,0.0,0.0,95,0.00,,,0.00,VWS V14.00,2013-03-17 10:23:00,
2013-03-17 06:29:00,14.1,12.9,29.85,NNW,335,0.0,0.0,95,0.00,,,0.00,VWS V14.00,2013-03-17 10:29:00,
2013-03-17 06:35:00,14.2,13.0,29.85,NNW,335,0.0,0.0,95,0.00,,,0.00,VWS V14.00,2013-03-17 10:35:00,
2013-03-17 06:44:00,13.8,12.7,29.85,NNW,335,0.0,0.0,95,0.00,,,0.00,VWS V14.00,2013-03-17 10:44:00,
2013-03-17 06:50:00,13.8,12.7,29.85,NNW,335,0.0,0.0,95,0.00,,,0.00,VWS V14.00,2013-03-17 10:50:00,
2013-03-17 06:56:00,13.8,12.7,29.86,NNW,335,0.0,0.0,95,0.00,,,0.00,VWS V14.00,2013-03-17 10:56:00,
2013-03-17 07:02:00,13.6,12.5,29.86,NNW,335,0.0,0.0,95,0.00,,,0.00,VWS V14.00,2013-03-17 11:02:00,
2013-03-17 07:08:00,13.7,12.7,29.86,NNW,335,0.0,0.0,96,0.00,,,0.00,VWS V14.00,2013-03-17 11:08:00,
2013-03-17 07:14:00,13.6,12.6,29.87,NNW,335,0.0,0.0,96,0.00,,,0.00,VWS V14.00,2013-03-17 11:14:00,
2013-03-17 07:20:00,13.6,12.7,29.87,NNW,335,0.0,0.0,96,0.00,,,0.00,VWS V14.00,2013-03-17 11:20:00,
2013-03-17 07:26:00,13.8,12.9,29.88,NNW,335,0.0,0.0,96,0.00,,,0.00,VWS V14.00,2013-03-17 11:26:00,
2013-03-17 07:32:00,13.7,12.9,29.88,NNW,335,0.0,0.0,96,0.00,,,0.00,VWS V14.00,2013-03-17 11:32:00,
2013-03-17 07:38:00,13.6,12.8,29.89,NNW,335,0.0,0.0,97,0.00,,,0.00,VWS V14.00,2013-03-17 11:38:00,
2013-03-17 07:44:00,13.9,13.2,29.89,NNW,335,0.0,0.0,97,0.00,,,0.00,VWS V14.00,2013-03-17 11:44:00,
2013-03-17 07:50:00,13.8,13.1,29.89,NNW,335,0.0,0.0,97,0.00,,,0.00,VWS V14.00,2013-03-17 11:50:00,
2013-03-17 07:57:00,14.0,13.3,29.89,NNW,335,0.0,0.0,97,0.00,,,0.00,VWS V14.00,2013-03-17 11:57:00,
2013-03-17 08:03:00,14.2,13.5,29.89,NNW,335,0.0,0.0,97,0.00,,,0.00,VWS V14.00,2013-03-17 12:03:00,
2013-03-17 08:09:00,14.3,13.5,29.89,NNW,335,0.0,0.0,97,0.00,,,0.00,VWS V14.00,2013-03-17 12:09:00,
2013-03-17 08:15:00,14.7,13.8,29.89,NNW,335,0.0,0.0,96,0.00,,,0.00,VWS V14.00,2013-03-17 12:15:00,
2013-03-17 08:21:00,15.3,14.3,29.89,NNW,335,0.0,0.0,96,0.00,,,0.00,VWS V14.00,2013-03-17 12:21:00,
2013-03-17 08:27:00,15.7,14.6,29.90,NNW,335,0.0,0.0,95,0.00,,,0.00,VWS V14.00,2013-03-17 12:27:00,
2013-03-17 08:33:00,16.4,15.1,29.90,NNW,335,0.0,0.0,94,0.00,,,0.00,VWS V14.00,2013-03-17 12:33:00,
2013-03-17 08:39:00,17.0,15.4,29.90,NNW,335,0.0,0.0,94,0.00,,,0.00,VWS V14.00,2013-03-17 12:39:00,
2013-03-17 08:45:00,17.5,15.6,29.91,NNW,335,0.0,0.0,92,0.00,,,0.00,VWS V14.00,2013-03-17 12:45:00,
2013-03-17 08:55:00,18.2,15.9,29.91,NW,323,0.0,6.2,90,0.00,,,0.00,VWS V14.00,2013-03-17 12:55:00,
2013-03-17 09:01:00,18.5,15.9,29.92,NW,323,0.0,6.2,89,0.00,,,0.00,VWS V14.00,2013-03-17 13:01:00,
2013-03-17 09:07:00,18.9,15.9,29.92,WNW,294,0.0,8.8,88,0.00,,,0.00,VWS V14.00,2013-03-17 13:07:00,
2013-03-17 09:13:00,19.2,15.8,29.92,WNW,294,0.0,8.8,86,0.00,,,0.00,VWS V14.00,2013-03-17 13:13:00,
2013-03-17 09:19:00,19.5,15.8,29.93,NNW,335,0.0,8.8,85,0.00,,,0.00,VWS V14.00,2013-03-17 13:19:00,
2013-03-17 09:25:00,19.7,15.7,29.93,NW,323,0.0,8.8,84,0.00,,,0.00,VWS V14.00,2013-03-17 13:25:00,
2013-03-17 09:31:00,19.9,15.4,29.93,North,349,0.0,9.9,82,0.00,,,0.00,VWS V14.00,2013-03-17 13:31:00,
2013-03-17 09:37:00,20.2,15.3,29.92,NNW,330,0.0,9.9,81,0.00,,,0.00,VWS V14.00,2013-03-17 13:37:00,
2013-03-17 09:43:00,20.7,15.5,29.93,NNW,346,4.3,9.9,80,0.00,,,0.00,VWS V14.00,2013-03-17 13:43:00,
2013-03-17 09:49:00,21.1,15.5,29.93,NNW,343,0.0,9.9,79,0.00,,,0.00,VWS V14.00,2013-03-17 13:49:00,
2013-03-17 09:55:00,21.3,15.2,29.94,NW,323,0.0,9.9,77,0.00,,,0.00,VWS V14.00,2013-03-17 13:55:00,
2013-03-17 10:01:00,21.6,15.2,29.94,NW,323,0.0,9.9,76,0.00,,,0.00,VWS V14.00,2013-03-17 14:01:00,
2013-03-17 10:07:00,22.2,15.7,29.94,NW,323,0.0,9.9,76,0.00,,,0.00,VWS V14.00,2013-03-17 14:07:00,
2013-03-17 10:13:00,22.9,16.1,29.94,NNW,328,0.0,9.9,75,0.00,,,0.00,VWS V14.00,2013-03-17 14:13:00,
2013-03-17 10:19:00,23.0,15.3,29.95,NNW,335,0.0,9.9,72,0.00,,,0.00,VWS V14.00,2013-03-17 14:19:00,
2013-03-17 10:25:00,23.8,15.6,29.95,NNW,342,7.0,9.9,71,0.00,,,0.00,VWS V14.00,2013-03-17 14:25:00,
2013-03-17 10:31:00,23.8,15.2,29.96,West,274,0.0,9.9,69,0.00,,,0.00,VWS V14.00,2013-03-17 14:31:00,
2013-03-17 10:37:00,24.2,15.4,29.96,NNW,336,4.2,9.9,68,0.00,,,0.00,VWS V14.00,2013-03-17 14:37:00,
2013-03-17 10:43:00,24.5,15.4,29.96,SW,232,0.0,10.1,68,0.00,,,0.00,VWS V14.00,2013-03-17 14:43:00,
2013-03-17 10:50:00,24.6,14.9,29.97,NW,314,4.8,10.1,66,0.00,,,0.00,VWS V14.00,2013-03-17 14:50:00,
2013-03-17 10:56:00,25.5,15.4,29.97,NNW,333,0.0,11.9,65,0.00,,,0.00,VWS V14.00,2013-03-17 14:56:00,
2013-03-17 11:02:00,25.9,15.2,29.97,WNW,294,0.0,11.9,64,0.00,,,0.00,VWS V14.00,2013-03-17 15:02:00,
2013-03-17 11:08:00,26.5,15.5,29.97,WSW,245,4.2,11.9,63,0.00,,,0.00,VWS V14.00,2013-03-17 15:08:00,
2013-03-17 11:14:00,26.9,15.3,29.97,West,269,5.5,11.9,61,0.00,,,0.00,VWS V14.00,2013-03-17 15:14:00,
2013-03-17 11:20:00,27.1,14.8,29.98,WNW,297,5.7,11.9,59,0.00,,,0.00,VWS V14.00,2013-03-17 15:20:00,
2013-03-17 11:26:00,27.2,14.4,29.98,West,281,0.0,11.9,58,0.00,,,0.00,VWS V14.00,2013-03-17 15:26:00,
2013-03-17 11:32:00,26.8,13.4,29.98,NNW,329,0.0,11.9,56,0.00,,,0.00,VWS V14.00,2013-03-17 15:32:00,
2013-03-17 11:38:00,27.5,14.3,29.98,NNW,328,6.7,11.9,57,0.00,,,0.00,VWS V14.00,2013-03-17 15:38:00,
2013-03-17 11:44:00,27.9,14.1,29.98,North,352,0.0,11.9,56,0.00,,,0.00,VWS V14.00,2013-03-17 15:44:00,
2013-03-17 11:50:00,28.0,13.7,29.98,North,359,0.0,12.5,54,0.00,,,0.00,VWS V14.00,2013-03-17 15:50:00,
2013-03-17 11:56:00,28.0,13.3,29.98,NW,307,1.9,12.5,53,0.00,,,0.00,VWS V14.00,2013-03-17 15:56:00,
2013-03-17 12:02:00,27.7,12.8,29.98,NW,326,8.5,14.9,53,0.00,,,0.00,VWS V14.00,2013-03-17 16:02:00,
2013-03-17 12:08:00,27.8,12.8,29.98,NNW,339,7.1,14.9,53,0.00,,,0.00,VWS V14.00,2013-03-17 16:08:00,
2013-03-17 12:14:00,27.9,12.7,29.98,NW,326,0.0,14.9,52,0.00,,,0.00,VWS V14.00,2013-03-17 16:14:00,
2013-03-17 12:20:00,28.1,12.6,29.98,WNW,292,0.0,14.9,52,0.00,,,0.00,VWS V14.00,2013-03-17 16:20:00,
2013-03-17 12:30:00,28.7,12.5,29.99,NNW,329,6.8,14.9,50,0.00,,,0.00,VWS V14.00,2013-03-17 16:30:00,
2013-03-17 12:36:00,28.9,12.4,29.99,NW,309,3.1,14.9,50,0.00,,,0.00,VWS V14.00,2013-03-17 16:36:00,
2013-03-17 12:42:00,29.1,12.4,30.00,NNW,342,4.4,14.9,49,0.00,,,0.00,VWS V14.00,2013-03-17 16:42:00,
2013-03-17 12:48:00,29.2,12.1,30.00,WNW,290,0.0,14.9,48,0.00,,,0.00,VWS V14.00,2013-03-17 16:48:00,
2013-03-17 12:54:00,29.6,12.5,30.00,WNW,302,4.8,14.9,48,0.00,,,0.00,VWS V14.00,2013-03-17 16:54:00,
2013-03-17 13:00:00,30.3,13.1,30.00,WSW,252,0.0,14.9,48,0.00,,,0.00,VWS V14.00,2013-03-17 17:00:00,
2013-03-17 13:06:00,30.7,13.4,30.00,NNW,335,4.7,14.9,48,0.00,,,0.00,VWS V14.00,2013-03-17 17:06:00,
2013-03-17 13:12:00,30.4,12.4,30.00,NW,321,0.0,14.9,47,0.00,,,0.00,VWS V14.00,2013-03-17 17:12:00,
2013-03-17 13:18:00,30.3,12.2,30.01,NNW,347,3.3,14.9,46,0.00,,,0.00,VWS V14.00,2013-03-17 17:18:00,
2013-03-17 13:24:00,30.5,12.2,30.01,NNW,335,4.9,14.9,46,0.00,,,0.00,VWS V14.00,2013-03-17 17:24:00,
2013-03-17 13:30:00,31.0,12.8,30.01,NW,312,7.5,14.9,46,0.00,,,0.00,VWS V14.00,2013-03-17 17:30:00,
2013-03-17 13:36:00,30.7,11.7,30.01,WNW,298,0.0,16.3,45,0.00,,,0.00,VWS V14.00,2013-03-17 17:36:00,
2013-03-17 13:42:00,30.2,11.0,30.01,NNW,342,0.0,16.3,44,0.00,,,0.00,VWS V14.00,2013-03-17 17:42:00,
2013-03-17 13:48:00,30.0,11.1,30.01,NNW,330,0.0,16.3,45,0.00,,,0.00,VWS V14.00,2013-03-17 17:48:00,
2013-03-17 13:54:00,30.3,11.7,30.01,NW,309,0.0,16.3,45,0.00,,,0.00,VWS V14.00,2013-03-17 17:54:00,
2013-03-17 14:00:00,30.4,11.7,30.01,NW,323,3.2,16.3,45,0.00,,,0.00,VWS V14.00,2013-03-17 18:00:00,
2013-03-17 14:06:00,31.2,13.3,30.01,NNW,340,0.0,16.3,47,0.00,,,0.00,VWS V14.00,2013-03-17 18:06:00,
2013-03-17 14:12:00,31.9,13.5,30.02,WSW,249,0.0,16.3,46,0.00,,,0.00,VWS V14.00,2013-03-17 18:12:00,
2013-03-17 14:18:00,31.9,13.3,30.01,NW,326,5.2,16.3,46,0.00,,,0.00,VWS V14.00,2013-03-17 18:18:00,
2013-03-17 14:25:00,31.1,12.4,30.01,NNW,333,0.0,16.3,45,0.00,,,0.00,VWS V14.00,2013-03-17 18:25:00,
2013-03-17 14:31:00,30.6,11.9,30.00,NNW,330,0.0,16.3,45,0.00,,,0.00,VWS V14.00,2013-03-17 18:31:00,
2013-03-17 14:37:00,30.6,11.9,30.00,NW,305,0.0,16.3,45,0.00,,,0.00,VWS V14.00,2013-03-17 18:37:00,
2013-03-17 14:43:00,30.9,12.1,30.00,West,264,0.0,16.3,45,0.00,,,0.00,VWS V14.00,2013-03-17 18:43:00,
2013-03-17 14:49:00,30.6,11.5,30.01,WNW,285,0.0,16.3,44,0.00,,,0.00,VWS V14.00,2013-03-17 18:49:00,
2013-03-17 14:55:00,30.8,11.9,30.01,North,359,5.7,16.3,45,0.00,,,0.00,VWS V14.00,2013-03-17 18:55:00,
2013-03-17 15:01:00,30.7,11.7,30.01,NW,316,6.6,16.3,45,0.00,,,0.00,VWS V14.00,2013-03-17 19:01:00,
2013-03-17 15:07:00,31.0,12.1,30.02,WNW,287,0.0,16.3,45,0.00,,,0.00,VWS V14.00,2013-03-17 19:07:00,
2013-03-17 15:13:00,31.1,11.7,30.02,North,352,0.0,16.3,44,0.00,,,0.00,VWS V14.00,2013-03-17 19:13:00,
2013-03-17 15:19:00,31.2,11.5,30.02,NNW,345,5.0,16.3,43,0.00,,,0.00,VWS V14.00,2013-03-17 19:19:00,
2013-03-17 15:25:00,31.5,11.7,30.02,WNW,292,0.0,16.3,43,0.00,,,0.00,VWS V14.00,2013-03-17 19:25:00,
2013-03-17 15:35:00,31.5,11.4,30.02,WNW,288,0.0,16.3,43,0.00,,,0.00,VWS V14.00,2013-03-17 19:35:00,
2013-03-17 15:44:00,31.3,11.0,30.02,NNW,329,0.0,16.3,42,0.00,,,0.00,VWS V14.00,2013-03-17 19:44:00,
2013-03-17 15:50:00,31.2,11.0,30.02,NNW,330,6.8,16.3,42,0.00,,,0.00,VWS V14.00,2013-03-17 19:50:00,
2013-03-17 15:56:00,31.2,10.7,30.02,North,349,5.9,16.3,42,0.00,,,0.00,VWS V14.00,2013-03-17 19:56:00,
2013-03-17 16:02:00,30.9,10.1,30.03,NNW,330,3.4,16.3,41,0.00,,,0.00,VWS V14.00,2013-03-17 20:02:00,
2013-03-17 16:08:00,30.6,9.7,30.03,SSW,207,4.8,16.3,41,0.00,,,0.00,VWS V14.00,2013-03-17 20:08:00,
2013-03-17 16:14:00,30.5,9.7,30.03,NNW,329,8.1,16.3,41,0.00,,,0.00,VWS V14.00,2013-03-17 20:14:00,
2013-03-17 16:20:00,30.2,9.4,30.03,NNW,342,0.0,16.3,41,0.00,,,0.00,VWS V14.00,2013-03-17 20:20:00,
2013-03-17 16:26:00,30.1,9.4,30.03,NNW,335,4.2,16.3,41,0.00,,,0.00,VWS V14.00,2013-03-17 20:26:00,
2013-03-17 16:33:00,30.1,9.1,30.03,North,353,5.4,16.3,41,0.00,,,0.00,VWS V14.00,2013-03-17 20:33:00,
2013-03-17 16:39:00,30.1,9.3,30.04,West,264,0.0,16.3,41,0.00,,,0.00,VWS V14.00,2013-03-17 20:39:00,
2013-03-17 16:45:00,29.9,8.8,30.04,NW,314,3.4,16.3,40,0.00,,,0.00,VWS V14.00,2013-03-17 20:45:00,
2013-03-17 16:54:00,29.8,8.3,30.04,NW,304,0.0,16.3,40,0.00,,,0.00,VWS V14.00,2013-03-17 20:54:00,
2013-03-17 17:00:00,30.4,8.9,30.05,NNW,333,0.0,16.3,40,0.00,,,0.00,VWS V14.00,2013-03-17 21:00:00,
2013-03-17 17:06:00,31.2,9.2,30.05,NW,318,7.4,16.3,39,0.00,,,0.00,VWS V14.00,2013-03-17 21:06:00,
2013-03-17 17:12:00,32.3,9.6,30.05,North,353,4.7,16.3,38,0.00,,,0.00,VWS V14.00,2013-03-17 21:12:00,
2013-03-17 17:18:00,32.8,8.7,30.05,North,1,4.8,16.3,36,0.00,,,0.00,VWS V14.00,2013-03-17 21:18:00,
2013-03-17 17:24:00,32.9,8.3,30.05,NNW,328,0.0,16.3,35,0.00,,,0.00,VWS V14.00,2013-03-17 21:24:00,
2013-03-17 17:31:00,33.1,7.7,30.06,NW,325,0.0,16.3,34,0.00,,,0.00,VWS V14.00,2013-03-17 21:31:00,
2013-03-17 17:37:00,33.2,7.7,30.06,NW,325,0.0,16.3,34,0.00,,,0.00,VWS V14.00,2013-03-17 21:37:00,
2013-03-17 17:43:00,33.5,7.7,30.06,NW,319,4.2,16.3,33,0.00,,,0.00,VWS V14.00,2013-03-17 21:43:00,
2013-03-17 17:49:00,33.1,6.7,30.06,NW,318,3.2,16.3,32,0.00,,,0.00,VWS V14.00,2013-03-17 21:49:00,
2013-03-17 17:55:00,32.6,6.0,30.07,NW,314,0.0,16.3,32,0.00,,,0.00,VWS V14.00,2013-03-17 21:55:00,
2013-03-17 18:04:00,32.3,5.7,30.07,NW,325,0.0,16.3,32,0.00,,,0.00,VWS V14.00,2013-03-17 22:04:00,
2013-03-17 18:10:00,31.3,4.9,30.07,North,350,0.0,16.3,32,0.00,,,0.00,VWS V14.00,2013-03-17 22:10:00,
2013-03-17 18:16:00,30.1,4.4,30.08,NNW,342,3.1,16.3,33,0.00,,,0.00,VWS V14.00,2013-03-17 22:16:00,
2013-03-17 18:22:00,29.3,4.2,30.08,NW,326,3.4,16.3,34,0.00,,,0.00,VWS V14.00,2013-03-17 22:22:00,
2013-03-17 18:28:00,28.0,3.5,30.08,NNW,342,3.5,16.3,34,0.00,,,0.00,VWS V14.00,2013-03-17 22:28:00,
2013-03-17 18:34:00,27.0,3.4,30.08,NNW,336,0.0,16.3,36,0.00,,,0.00,VWS V14.00,2013-03-17 22:34:00,
2013-03-17 18:40:00,26.4,3.5,30.08,NW,323,0.0,16.3,37,0.00,,,0.00,VWS V14.00,2013-03-17 22:40:00,
2013-03-17 18:46:00,25.7,3.5,30.09,NW,323,0.0,16.3,38,0.00,,,0.00,VWS V14.00,2013-03-17 22:46:00,
2013-03-17 18:52:00,25.3,3.5,30.09,WNW,295,0.0,16.3,38,0.00,,,0.00,VWS V14.00,2013-03-17 22:52:00,
2013-03-17 18:58:00,24.8,3.7,30.10,WNW,291,0.0,16.3,40,0.00,,,0.00,VWS V14.00,2013-03-17 22:58:00,
2013-03-17 19:04:00,24.3,3.6,30.10,NW,314,0.0,16.3,40,0.00,,,0.00,VWS V14.00,2013-03-17 23:04:00,
2013-03-17 19:10:00,23.7,3.6,30.11,NW,318,0.0,16.3,41,0.00,,,0.00,VWS V14.00,2013-03-17 23:10:00,
2013-03-17 19:16:00,23.2,3.5,30.11,NW,318,0.0,16.3,42,0.00,,,0.00,VWS V14.00,2013-03-17 23:16:00,
2013-03-17 19:22:00,22.9,3.7,30.11,NW,318,0.0,16.3,43,0.00,,,0.00,VWS V14.00,2013-03-17 23:22:00,
2013-03-17 19:28:00,22.6,3.7,30.12,NW,318,0.0,16.3,44,0.00,,,0.00,VWS V14.00,2013-03-17 23:28:00,
2013-03-17 19:35:00,22.4,4.1,30.12,NW,318,0.0,16.3,44,0.00,,,0.00,VWS V14.00,2013-03-17 23:35:00,
2013-03-17 19:41:00,22.2,4.3,30.12,NW,318,0.0,16.3,46,0.00,,,0.00,VWS V14.00,2013-03-17 23:41:00,
2013-03-17 19:47:00,22.0,4.5,30.13,NW,318,0.0,16.3,46,0.00,,,0.00,VWS V14.00,2013-03-17 23:47:00,
2013-03-17 19:53:00,21.9,4.8,30.13,NW,318,0.0,16.3,47,0.00,,,0.00,VWS V14.00,2013-03-17 23:53:00,
2013-03-17 19:59:00,21.8,5.2,30.14,NW,318,0.0,16.3,48,0.00,,,0.00,VWS V14.00,2013-03-17 23:59:00,
2013-03-17 20:05:00,21.5,5.5,30.14,NW,318,0.0,16.3,50,0.00,,,0.00,VWS V14.00,2013-03-18 00:05:00,
2013-03-17 20:11:00,21.1,5.7,30.15,NW,318,0.0,16.3,51,0.00,,,0.00,VWS V14.00,2013-03-18 00:11:00,
2013-03-17 20:17:00,20.9,5.4,30.15,NW,318,0.0,16.3,50,0.00,,,0.00,VWS V14.00,2013-03-18 00:17:00,
2013-03-17 20:23:00,20.8,5.2,30.15,NW,318,0.0,16.3,50,0.00,,,0.00,VWS V14.00,2013-03-18 00:23:00,
2013-03-17 20:29:00,20.6,5.2,30.15,NW,318,0.0,16.3,51,0.00,,,0.00,VWS V14.00,2013-03-18 00:29:00,
2013-03-17 20:35:00,20.3,4.8,30.15,NW,318,0.0,16.3,50,0.00,,,0.00,VWS V14.00,2013-03-18 00:35:00,
2013-03-17 20:41:00,20.3,4.7,30.15,NW,318,0.0,16.3,50,0.00,,,0.00,VWS V14.00,2013-03-18 00:41:00,
2013-03-17 20:47:00,19.9,4.2,30.16,NW,318,0.0,16.3,50,0.00,,,0.00,VWS V14.00,2013-03-18 00:47:00,
2013-03-17 20:53:00,19.8,4.3,30.16,WNW,301,0.0,16.3,50,0.00,,,0.00,VWS V14.00,2013-03-18 00:53:00,
2013-03-17 21:00:00,19.6,4.2,30.17,WNW,301,0.0,16.3,51,0.00,,,0.00,VWS V14.00,2013-03-18 01:00:00,
2013-03-17 21:06:00,19.4,4.2,30.17,WNW,301,0.0,16.3,51,0.00,,,0.00,VWS V14.00,2013-03-18 01:06:00,
2013-03-17 21:12:00,19.4,4.2,30.17,WNW,301,0.0,16.3,51,0.00,,,0.00,VWS V14.00,2013-03-18 01:12:00,
2013-03-17 21:18:00,19.1,3.9,30.17,WNW,301,0.0,16.3,51,0.00,,,0.00,VWS V14.00,2013-03-18 01:18:00,
2013-03-17 21:24:00,19.0,3.7,30.18,WNW,301,0.0,16.3,51,0.00,,,0.00,VWS V14.00,2013-03-18 01:24:00,
2013-03-17 21:30:00,18.9,3.7,30.18,WNW,301,0.0,16.3,51,0.00,,,0.00,VWS V14.00,2013-03-18 01:30:00,
2013-03-17 21:36:00,18.7,3.6,30.18,WNW,301,0.0,16.3,51,0.00,,,0.00,VWS V14.00,2013-03-18 01:36:00,
2013-03-17 21:42:00,18.6,3.5,30.19,WNW,302,0.0,16.3,51,0.00,,,0.00,VWS V14.00,2013-03-18 01:42:00,
2013-03-17 21:48:00,18.4,3.2,30.19,WNW,302,0.0,16.3,51,0.00,,,0.00,VWS V14.00,2013-03-18 01:48:00,
2013-03-17 21:54:00,18.3,3.1,30.19,WNW,302,0.0,16.3,51,0.00,,,0.00,VWS V14.00,2013-03-18 01:54:00,
2013-03-17 22:00:00,18.2,3.1,30.20,WNW,302,0.0,16.3,51,0.00,,,0.00,VWS V14.00,2013-03-18 02:00:00,
2013-03-17 22:06:00,18.2,3.4,30.20,WNW,302,0.0,16.3,52,0.00,,,0.00,VWS V14.00,2013-03-18 02:06:00,
2013-03-17 22:12:00,17.9,3.3,30.20,WNW,302,0.0,16.3,52,0.00,,,0.00,VWS V14.00,2013-03-18 02:12:00,
2013-03-17 22:18:00,17.7,3.2,30.20,WNW,302,0.0,16.3,52,0.00,,,0.00,VWS V14.00,2013-03-18 02:18:00,
2013-03-17 22:24:00,17.6,3.3,30.20,WNW,302,0.0,16.3,53,0.00,,,0.00,VWS V14.00,2013-03-18 02:24:00,
2013-03-17 22:30:00,17.3,3.4,30.20,WNW,302,0.0,16.3,54,0.00,,,0.00,VWS V14.00,2013-03-18 02:30:00,
2013-03-17 22:36:00,17.4,3.8,30.21,WNW,302,0.0,16.3,54,0.00,,,0.00,VWS V14.00,2013-03-18 02:36:00,
2013-03-17 22:43:00,17.3,4.0,30.20,WNW,302,0.0,16.3,55,0.00,,,0.00,VWS V14.00,2013-03-18 02:43:00,
2013-03-17 22:49:00,16.8,3.8,30.21,WNW,302,0.0,16.3,56,0.00,,,0.00,VWS V14.00,2013-03-18 02:49:00,
2013-03-17 22:55:00,16.9,3.8,30.21,WNW,302,0.0,16.3,56,0.00,,,0.00,VWS V14.00,2013-03-18 02:55:00,
2013-03-17 23:01:00,17.0,3.7,30.21,NW,307,0.0,16.3,55,0.00,,,0.00,VWS V14.00,2013-03-18 03:01:00,
2013-03-17 23:07:00,16.8,3.4,30.21,NW,307,0.0,16.3,55,0.00,,,0.00,VWS V14.00,2013-03-18 03:07:00,
2013-03-17 23:13:00,16.6,3.1,30.21,NW,307,0.0,16.3,55,0.00,,,0.00,VWS V14.00,2013-03-18 03:13:00,
2013-03-17 23:19:00,16.6,3.3,30.21,NW,307,0.0,16.3,55,0.00,,,0.00,VWS V14.00,2013-03-18 03:19:00,
2013-03-17 23:25:00,16.6,3.5,30.21,NW,307,0.0,16.3,56,0.00,,,0.00,VWS V14.00,2013-03-18 03:25:00,
2013-03-17 23:34:00,16.2,3.3,30.20,NW,307,0.0,16.3,56,0.00,,,0.00,VWS V14.00,2013-03-18 03:34:00,
2013-03-17 23:40:00,16.0,3.4,30.20,NW,307,0.0,16.3,57,0.00,,,0.00,VWS V14.00,2013-03-18 03:40:00,
2013-03-17 23:46:00,15.8,3.5,30.21,NW,307,0.0,16.3,58,0.00,,,0.00,VWS V14.00,2013-03-18 03:46:00,
2013-03-17 23:52:00,15.8,3.7,30.21,NW,307,0.0,16.3,58,0.00,,,0.00,VWS V14.00,2013-03-18 03:52:00,
2013-03-17 23:58:00,15.6,3.7,30.21,NW,307,0.0,16.3,59,0.00,,,0.00,VWS V14.00,2013-03-18 03:58:00,